STARLINK-1333 (45580 NORAD) Tracking and Keplerian Element Data

This shows tracking and keplerian element data for the satellite.

Feedback or suggestion? Click here.




ElementValue
Catalog45580
NameSTARLINK-1333
Epoch Orbit177
Epoch Day188.91667824
Epoch Year2020
RAAN30.4448
Inclination52.9999
Eccentricity0.000115
Argument of Perigee81.0238
Mean Anonmoly273.5679
Mean Motion15.54772831
Decay Rate-0.01141513
L11 45580U 20025BB 20188.91667824 -.01141513 00000-0 -18691-1 0 9997
L22 45580 52.9999 30.4448 0001150 81.0238 273.5679 15.54772831 1776

Live tracking and technical data element details for STARLINK-1333 (NORAD 45580). STARLINK-1333 can be tracked NOW for your location showing map with azimuth and elevation plus other details from your city location.

Track the satellite on the map from your city or location and see movement details for azimuth, elevation, latitude, longitude, range, height, and movement on the map or in text.







IsCatalogInMostPopularTable: catalog: 45580, numindb: 21
Update: records affected: 1



GetName: 45580 STARLINK-1333

Hit Count: updated at: Wed, 08 Jul 2020 03:24:51 GMT